map of UFA home
Great Circle Mapper logo
UFA - Airport
Location
City:  Ufa, Bashkortostan, Russian Federation (Russia)
ICAO / IATA:UWUU / UFA

Details
Type:Airport (Aerodrome, Airfield)
Use:Public/Civil
Latitude:5433'27"N (54.557511)
Longitude:5552'28"E (55.874417)
Datum:WGS 1984
Elevation:449 ft (137 m)
Runways:5
Longest:12340 × 197 ft (3761 × 60 m), paved

Time
Time Zone:UTC+5 (DST+6)

Weather
METAR:UWUU 230600Z 28004MPS 250V310 3000 -SN OVC016 M07/M09 Q1007 32450550 TEMPO 1000 SN BKN006 RMK QFE743/0990
TAF:UWUU 230445Z 2306/2406 26006G12MPS 4500 -SN DRSN OVC015 BKN020CB 650150 530002
TEMPO 2306/2315 0500 +SHSN VV003

Related Locations
Nearby:
Farthest:AAXX: 10440 mi / 16802 km
Rothera Point, Adelaide Island, AQ

Find:

   beyond  
but within

Other Information
Maps:
NOTAMs:
Links:
Sources:

  
flag of Russian Federation (Russia)   

Sectional Chart

Flight Planning
at skyvector.com

Satellite Image

Google Maps Satellite View

 

Copyright © 2004-2014 Karl L. Swartz. All rights reserved.
The Great Circle Mapper name and logo are trademarks of the Great Circle Mapper.
All other trademarks mentioned herein belong to their respective owners.
Please see credits for attibutions and further copyright information.

  Follow gcmap on Facebook Follow gcmap on Twitter

hCard Microformat

Geo Microformat